www.pogodaiklimat.ru

Погода и климат >> Архив погоды >> Россия >> Псковская область >> Гдов


ПОГОДА в Гдове

  • Прогноз погоды в Гдове
  • Монитор погоды в Гдове

АРХИВ ПОГОДЫ в Гдове

Время (UTC), дата Ветер
(напр.,м/с)
 
Видим.   Явления Облачность Т
(С)
Тd
(С)
f
(%)
Тe
(С)
Тes
(С)
Комфортность P
(гПа)
Po
(гПа)
Тmin
(С)
Tmax
(С)
R
(мм)
R24
(мм)
S
(см)
09 17.04 СЗ 3 20 км ясно +10.5 +0.5 50 +9 +17 1035.2 1030.2
12 17.04 З 3 20 км 1/0
[Ci fib]
+11.2 0.0 46 +10 +17 1034.3 1029.3
15 17.04 З 2 20 км 4/0
[Ci fib]
+12.0 -1.0 41 +11 +14 1033.0 1028.0
18 17.04 С 1 20 км 8/0
[Ci fib]
+7.4 -1.1 55 +7 +7 1033.2 1028.1 +13.1
21 17.04 С 2 20 км 4/0
[Ci fib]
+4.4 -0.6 70 +2 +2 1033.4 1028.3
00 18.04 штиль 0 10 км 8/0
[Ci fib]
-1.1 -1.4 98 -2 -2 1033.8 1028.6
03 18.04 штиль 0 10 км туман поземный 8/0
[Ac trans Ci fib]
-2.0 -2.0 100 -3 -3 1033.7 1028.4 -2.5
06 18.04 С 2 20 км 3/0
[Ci fib]
+6.9 +1.2 67 +5 +9 1033.7 1028.6 -2.5
09 18.04 С 5 20 км 1/0
[Ci fib]
+13.5 -3.9 30 +12 +17 1033.9 1028.9
12 18.04 С 4 20 км ясно +16.0 -6.2 21 +15 +21 1033.3 1028.4
15 18.04 СЗ 4 20 км ясно +14.2 -3.5 29 +13 +15 1032.9 1027.9
18 18.04 С 2 20 км 3/0
[Ci fib]
+10.1 -3.6 38 +9 +9 1033.5 1028.5 +16.4
21 18.04 СВ 2 20 км ясно +5.6 -1.7 59 +4 +4 1034.3 1029.2
00 19.04 СВ 1 20 км 1/0
[Ci fib]
-0.8 -1.8 93 -3 -3 1035.0 1029.8
03 19.04 В 1 20 км 3/0
[Ci fib]
-2.2 -2.8 96 -5 -5 1034.9 1029.6 -2.3
06 19.04 ЮЗ 1 20 км 6/4 1000 м
[Sc Ci fib]
+8.8 +0.6 56 +9 +11 1034.4 1029.3 -2.3
09 19.04 ЮЗ 2 20 км 6/0
[Ci sp]
+12.9 -1.6 37 +13 +21 1033.7 1028.7
12 19.04 З 3 20 км 6/0
[Ci sp]
+15.2 -1.3 32 +15 +21 1032.1 1027.2
15 19.04 С 3 20 км 8/4 1000 м
[Sc Ac trans Ci fib]
+12.5 -2.1 36 +11 +12 1031.0 1026.0
18 19.04 СЗ 1 10 км 10/8 1000 м
[Sc Ac trans Ci fib]
+10.4 -0.5 47 +11 +11 1030.3 1025.3 +16.2
21 19.04 штиль 0 20 км 1/0
[Ci fib]
+4.8 +1.2 77 +4 +4 1029.7 1024.6
00 20.04 С 1 10 км 9/8 600 м
[Sc Ac trans]
+5.7 +1.6 75 +5 +5 1029.0 1023.9
03 20.04 С 2 20 км 3/0
[Ac trans]
+5.8 +1.2 72 +4 +4 1029.2 1024.1 +4.4
06 20.04 С 3 20 км ясно +8.9 +1.1 58 +7 +10 1029.1 1024.1 +4.4
09 20.04 СЗ 4 20 км 1/1 600 м
[Cu hum]
+11.1 +0.3 47 +9 +15 1028.7 1023.7
12 20.04 СЗ 5 20 км 3/3 600 м
[Cu med, cong Ci fib]
+12.1 -3.2 34 +10 +14 1027.7 1022.7
15 20.04 С 4
{10}
20 км 8/1 600 м
[Cu med, cong Ci fib]
+11.2 -4.8 32 +9 +11 1026.8 1021.8
18 20.04 СВ 2 20 км 8/3 600 м
[Sc Ac trans Ci fib]
+7.5 -3.2 47 +6 +6 1027.1 1022.0 +12.8
21 20.04 В 3 20 км 3/0
[Ac trans]
+4.6 -1.9 63 +1 +1 1027.5 1022.4
00 21.04 В 2 20 км ясно +1.4 -1.1 83 -2 -2 1027.8 1022.6
03 21.04 СВ 3 20 км ясно -0.3 -1.1 94 -5 -5 1028.1 1022.9 -0.4
06 21.04 В 5 20 км ясно +6.5 0.0 63 +3 +5 1028.3 1023.2 -0.4
09 21.04 В 3 20 км ясно +12.4 -0.5 41 +11 +20 1028.2 1023.2
12 21.04 СЗ 4 20 км 1/1 600 м
[Cu hum]
+12.5 0.0 42 +11 +16 1027.4 1022.4
15 21.04 СЗ 3 20 км ясно +13.1 -1.0 38 +12 +14 1026.6 1021.7
18 21.04 С 1 20 км 1/0
[Ci fib]
+7.5 -0.4 57 +7 +7 1027.6 1022.5 +14.6
21 21.04 В 1 20 км ясно +1.4 -0.5 87 -0 -0 1028.0 1022.8
00 22.04 В 1 20 км ясно -0.5 -1.5 93 -3 -3 1028.3 1023.1
03 22.04 В 1 20 км 1/0
[Ci fib]
-1.1 -1.8 95 -3 -3 1028.6 1023.4 -1.2
06 22.04 Ю 3 20 км 1/0
[Ci fib]
+11.9 +1.2 48 +11 +14 1029.3 1024.3 -1.2
09 22.04 ЮЗ 4 20 км 8/0
[Ci fib]
+17.4 -0.4 30 +17 +23 1029.7 1024.8
12 22.04 ЮЗ 3 20 км 1/0
[Ci fib]
+18.9 +0.1 28 +19 +27 1028.7 1023.8
15 22.04 ЮЗ 3 20 км 1/0
[Ci fib]
+19.2 -2.3 23 +19 +22 1027.9 1023.0
18 22.04 штиль 0 20 км 4/0
[Ci fib]
+11.6 -0.7 43 +11 +11 1028.1 1023.1 +19.7
21 22.04 СВ 2 20 км 4/0
[Ci fib]
+9.1 +1.4 59 +8 +8 1029.3 1024.3
00 23.04 СВ 1 20 км 3/0
[Ci fib]
+4.5 +1.6 81 +3 +3 1029.9 1024.8
03 23.04 В 1 20 км 4/0
[Ci fib]
+1.4 +0.5 94 -1 -1 1030.6 1025.4 +0.9
06 23.04 ЮЗ 1 20 км 6/0
[Ci fib]
+11.6 +3.1 56 +12 +16 1031.5 1026.5 +0.9
09 23.04 З 2 20 км 8/0
[Ci fib]
+16.6 +0.3 33 +17 +26 1031.6 1026.7
12 23.04 СЗ 2 20 км 8/0
[Ci fib]
+19.2 -0.5 26 +20 +28 1030.7 1025.8
15 23.04 ЮЗ 2 20 км 6/0
[Ci fib]
+19.4 0.0 27 +20 +22 1028.9 1024.0
18 23.04 В 1 20 км 6/0
[Ci fib]
+10.9 +2.3 55 +11 +11 1028.6 1023.6 +20.1
21 23.04 СВ 1 20 км 3/0
[Ci fib]
+6.1 +2.8 79 +5 +5 1029.1 1024.0
00 24.04 СВ 1 20 км 3/0
[Ci fib]
+3.7 +1.9 88 +2 +2 1029.6 1024.5
03 24.04 СВ 1 10 км 1/0
[Ci fib]
+2.2 +1.2 93 0 +1 1030.3 1025.1 +1.7
06 24.04 ЮВ 2 20 км ясно +15.5 +2.9 43 +16 +20 1030.2 1025.3 +1.7

 

Местоположение метеостанции Гдов (Псковская область, Россия): широта 58.73 долгота 27.83 высота над уровнем моря 41 м.

В архиве по умолчанию представлена погода в Гдове за последнюю неделю. Архивные данные за месяц целиком и за предыдущие месяцы, начиная с января 2011 года, Вы можете получить, выбрав интересующий диапазон дат из раскрывающегося списка и нажав кнопку "Ввод!".


*Определитесь, кто Вы:
робот инопланетянин человек

Внимание! Время в таблицах - всемирное. Для получения местного времени необходимо прибавить поправку, которая равна 3 ч.

Смотрите также архив погоды в соседних городах и на ближайших метеорологических станциях:

Погода в Сланцах (Ленинградская область, Россия) (46 км)
Погода в Тиирикое (Эстония) (53 км)
Погода в Йохви (Эстония) (72 км)
Погода в Нарве (Эстония) (73 км)
Погода в Тарту (Эстония) (80 км)
Погода в Йыгеве (Эстония) (81 км)
Погода в Кингисеппе (Ленинградская область, Россия) (84 км)
Погода в Стругах-Красных (Псковская область, Россия) (90 км)
Погода в Вяйке-Маарье (Эстония) (102 км)
Погода в Пскове (Псковская область, Россия) (105 км)

Пояснения к столбцам:

Ветер - указаны скорость ветра в м/с - средняя за 10 мин, порывы в срок и между сроками (в фигурных скобках) и направление, откуда дует ветер: С - северный, СВ - северо-восточный, В - восточный, ЮВ - юго-восточный, Ю - южный, ЮЗ - юго-западный, З - западный, СЗ - северо-западный.
Видимость - горизонтальная дальность видимости в метрах или километрах. При видимости от 1 до 10 км при отсутствии осадков обычно наблюдается дымка, при ухудшении видимости до 1 км и менее - туман. В сухую погоду видимость может ухудшаться дымом, пылью или мглою.
Явления - указаны атмосферные явления, наблюдавшиеся в срок или в последний час перед сроком; фигурными скобками обозначены явления, наблюдавшиеся между сроками (за 1-3 часа до срока); квадратными скобками обозначены град или гололедные отложения с указанием их диаметра в мм.
Облачность - указаны через наклонную черту общая и нижняя облачность в баллах и высота нижней границы облаков в метрах; квадратными скобками обозначены формы облаков: Ci - перистые, Cs - перисто-слоистые, Cc - перисто-кучевые, Ac - высококучевые, As - высокослоистые, Sc - слоисто-кучевые, Ns - слоисто-дождевые, Cu - кучевые, Cb - кучево-дождевые. Подробнее классификацию облаков см. в Атласе облаков (PDF).
T - Температура воздуха - температура, измеренная на высоте 2 м над землей.
Td - Температура точки росы - температура, при понижении до которой содержащийся в воздухе водяной пар достигнет насыщения.
f - Относительная влажность воздуха - влажноcть воздуха, измеренная на высоте 2 м над землей.
Te - Эффективная температура - температура, которую ощущает одетый по сезону человек в тени. Характеристика душности погоды. При расчете учитывается влияние влажности воздуха и скорости ветра на теплоощущения человека.
Tes - Эффективная температура на солнце - температура, которую ощущает человек, с поправкой на солнечный нагрев. Характеристика знойности погоды. Зависит от высоты солнца над горизонтом, облачности и скорости ветра. Ночью, в пасмурную погоду, а также при ветре 12 м/с и более поправка равна нулю.
P - Атмосферное давление - приведенное к уровню моря атмосферное давление.
Po - Атмосферное давление - измеренное на уровне метеостанции атмосферное давление.
Tmin - Минимальная температура - минимум температуры воздуха на высоте 2 м над землей.
Tmax - Максимальная температура - максимум температуры воздуха на высоте 2 м над землей.
R - Количество осадков - Количество выпавших осадков за период времени, мм. При наведении курсора мыши на число - период времени, за который выпало указанное количество осадков.
R24 - Количество осадков - Количество выпавших осадков за 24 часа, мм.
S - Снежный покров - Высота снежного покрова, см. При наведении курсора мыши на число - состояние снежного покрова и степень покрытия местности в баллах.